This is the latest recevied weather packets stored in our database for station/object KC1IUC-13. If no packets are shown the sender has not sent any weather packets the latest 10 day(s).
| Time | Temp. | Humidity | Pressure | Rain* | Wind** | Luminosity | Snow |
|---|---|---|---|---|---|---|---|
| 1777644543 | 13.33° C | 73% | 1008.7 hPa | 0 mm | - | 51 W/m² | - |
| 1777643643 | 13.33° C | 75% | 1008.3 hPa | 0 mm | - | 54 W/m² | - |
| 1777643103 | 13.33° C | 75% | 1008.3 hPa | 0 mm | - | 334 W/m² | - |
| 1777642563 | 13.33° C | 76% | 1008.3 hPa | 0 mm | - | 226 W/m² | - |
| 1777642023 | 13.33° C | 78% | 1008.3 hPa | 0 mm | - | 238 W/m² | - |
| 1777641483 | 12.22° C | 79% | 1008.7 hPa | 0 mm | - | 288 W/m² | - |
| 1777640943 | 11.11° C | 79% | 1008.7 hPa | 0 mm | - | 373 W/m² | - |
| 1777640402 | 10.56° C | 79% | 1008.3 hPa | 0 mm | - | 51 W/m² | - |
| 1777640043 | 11.11° C | 80% | 1008.3 hPa | 0 mm | - | 149 W/m² | - |
| 1777639503 | 10.56° C | 81% | 1008.3 hPa | 0 mm | - | 44 W/m² | - |
| 1777638963 | 10° C | 82% | 1008.3 hPa | 0 mm | - | 91 W/m² | - |
| 1777638423 | 10° C | 82% | 1008.7 hPa | 0 mm | - | 53 W/m² | - |
| 1777637883 | 10° C | 84% | 1008.3 hPa | 0 mm | - | 66 W/m² | - |
| 1777637343 | 9.44° C | 84% | 1008.3 hPa | 0 mm | - | 39 W/m² | - |
| 1777636803 | 8.33° C | 84% | 1008.7 hPa | 0 mm | - | 74 W/m² | - |
| 1777636443 | 8.33° C | 83% | 1008.7 hPa | 0 mm | - | 62 W/m² | - |
| 1777635902 | 8.33° C | 84% | 1008.7 hPa | 0 mm | - | 35 W/m² | - |
| 1777635363 | 7.78° C | 83% | 1008.3 hPa | 0 mm | - | 48 W/m² | - |
| 1777634823 | 8.89° C | 83% | 1008.3 hPa | 0 mm | - | 25 W/m² | - |
| 1777634283 | 7.78° C | 83% | 1008.3 hPa | 0 mm | - | 35 W/m² | - |
| 1777633743 | 6.67° C | 84% | 1008.3 hPa | 0 mm | - | 25 W/m² | - |
| 1777633203 | 5.56° C | 84% | 1008.3 hPa | 0 mm | - | 20 W/m² | - |
| 1777632843 | 5° C | 84% | 1008 hPa | 0 mm | - | 19 W/m² | - |
| 1777632302 | 3.89° C | 84% | 1008 hPa | 0 mm | - | 16 W/m² | - |
| 1777631763 | 3.89° C | 84% | 1008 hPa | 0 mm | - | 14 W/m² | - |
* Rain latest hour (hover to see other rain measurements)
** Current wind speed in m/s (hover to see current wind gust speed)